Location: Starlight Observatory
(38.4029°N, 85.8936°W)
Time: 03:45:51
(UTC-04:00)

Amateur Radio Satellites - All Passes

Search period start: 05 September 2015 03:15
Search period end: 06 September 2015 03:15
Location: Starlight Observatory, 38.4029°N, 85.8936°W

Satellite Date Start Highest point End Downlink Frequencies (MHz)
Time Altitude Azimuth
ITAMSAT 1 05 Sep 03:24:06 03:28:09 23° 94° (E) 03:32:18 435.822/435.867
KKS-1 05 Sep 03:28:47 03:32:50 35° 71° (ENE) 03:36:57 437.445
Gurwin Techsat 1B 05 Sep 03:32:43 03:37:34 36° 97° (E) 03:42:28 435.225
BEESAT 05 Sep 03:33:17 03:37:34 32° 264° (W) 03:41:47 436.000
VERMONT LUNAR 05 Sep 03:33:30 03:36:30 84° 346° (NNW) 03:39:30 437.305
JAS-2 05 Sep 03:45:08 03:50:21 25° 90° (E) 03:55:15 435.910
O/OREOS (USA 219) 05 Sep 03:51:57 03:54:09 14° 53° (NE) 03:56:34 437.305
Oscar 19 05 Sep 03:53:42 03:58:38 43° 289° (WNW) 04:03:29 437.125/150
SWISSCUBE 05 Sep 04:01:39 04:04:34 15° 269° (W) 04:07:17 437.505
PHONESAT 2.4 05 Sep 04:09:22 04:12:09 23° 150° (SSE) 04:14:57 2401.200-2431.200
Cosmos 2499 05 Sep 04:13:20 04:21:01 41° 88° (E) 04:29:10 435.465 / 435.565
MOZHAYETS 4 05 Sep 04:16:13 04:19:04 17° 67° (ENE) 04:22:05
STARS 05 Sep 04:34:11 04:38:36 73° 258° (WSW) 04:43:03 437.465
HORYU 2 05 Sep 04:35:20 04:37:01 12° 90° (E) 04:38:58 437.375
GONETS M04 05 Sep 04:41:02 04:49:09 41° 287° (WNW) 04:57:15
AO-7 05 Sep 05:00:10 05:07:39 38° 97° (E) 05:15:14 29.400- 29.500
ITAMSAT 1 05 Sep 05:02:58 05:07:47 39° 290° (WNW) 05:12:34 435.822/435.867
KKS-1 05 Sep 05:06:19 05:09:36 19° 267° (W) 05:12:46 437.445
VERMONT LUNAR 05 Sep 05:10:05 05:13:02 54° 3° (N) 05:15:57 437.305
Gurwin Techsat 1B 05 Sep 05:13:00 05:17:25 27° 292° (WNW) 05:21:44 435.225
JAS-2 05 Sep 05:29:24 05:35:51 48° 291° (WNW) 05:41:31 435.910
O/OREOS (USA 219) 05 Sep 05:29:33 05:34:07 63° 251° (WSW) 05:38:37 437.305
PHONESAT 2.4 05 Sep 05:46:21 05:49:47 90° 187° (S) 05:53:12 2401.200-2431.200
MOZHAYETS 4 05 Sep 05:51:33 05:55:59 45° 262° (W) 06:00:23
Cosmos 2499 05 Sep 06:06:04 06:14:09 43° 287° (WNW) 06:22:28 435.465 / 435.565
HORYU 2 05 Sep 06:09:43 06:14:05 55° 286° (WNW) 06:18:24 437.375
CUBESAT XI-V 05 Sep 06:21:57 06:25:55 30° 71° (ENE) 06:29:58 437.345
STRAND 1 05 Sep 06:31:56 06:33:36 12° 62° (ENE) 06:35:33 437.568
VERMONT LUNAR 05 Sep 06:46:31 06:49:29 69° 200° (SSW) 06:52:26 437.305
AO-7 05 Sep 06:52:46 07:00:36 47° 295° (WNW) 07:08:19 29.400- 29.500
ISS 05 Sep 07:07:50 07:10:08 18° 131° (SE) 07:12:31 145.825
Cubesat XI-IV 05 Sep 07:18:44 07:23:14 28° 95° (E) 07:27:49 437.490
PHONESAT 2.4 05 Sep 07:24:24 07:27:47 58° 1° (N) 07:31:10 2401.200-2431.200
PRISM 05 Sep 07:54:44 07:58:40 49° 74° (ENE) 08:02:39 437.425
CUBESAT XI-V 05 Sep 07:59:39 08:03:23 24° 266° (W) 08:07:02 437.345
CUTE-I 05 Sep 08:01:37 08:06:57 72° 101° (ESE) 08:12:17 437.470
STRAND 1 05 Sep 08:07:07 08:12:12 82° 258° (WSW) 08:17:20 437.568
YUBILEINY 05 Sep 08:07:49 08:15:52 39° 72° (ENE) 08:23:58 435.215
VERMONT LUNAR 05 Sep 08:23:52 08:25:32 14° 213° (SSW) 08:27:08 437.305
AIST 1 05 Sep 08:36:33 08:40:47 78° 96° (E) 08:45:04
DOVE 4 05 Sep 08:37:07 08:37:30 10° 85° (E) 08:38:18 437.250
BRITE-PL 05 Sep 08:39:36 08:44:44 36° 95° (E) 08:49:58 437.365/2234.400
ISS 05 Sep 08:43:16 08:46:22 41° 327° (NNW) 08:49:28 145.825
GOMX 1 05 Sep 08:44:14 08:48:30 23° 92° (E) 08:52:51 467.674
HO-68 05 Sep 08:48:01 08:51:18 14° 87° (E) 08:55:06 435.675
Cosmos 2491 05 Sep 08:55:34 09:03:23 41° 88° (E) 09:11:22 435.465 / 435.565
Cubesat XI-IV 05 Sep 08:58:34 09:03:23 34° 291° (WNW) 09:08:06 437.490
PHONESAT 2.4 05 Sep 09:02:21 09:05:45 75° 200° (SSW) 09:09:09 2401.200-2431.200
SO-50 05 Sep 09:10:01 09:14:19 29° 49° (NE) 09:18:35 436.795
CANX-2 05 Sep 09:13:47 09:16:11 15° 91° (E) 09:18:44 2200.000
SEEDS 05 Sep 09:26:24 09:28:40 15° 91° (E) 09:31:06 437.485
PRISM 05 Sep 09:32:57 09:34:27 11° 270° (W) 09:35:44 437.425
COMPASS 1 05 Sep 09:39:44 09:42:16 16° 91° (E) 09:44:56 437.405
CUTE-I 05 Sep 09:43:35 09:46:29 14° 297° (WNW) 09:49:08 437.470
AAUSAT CUBESAT 2 05 Sep 09:45:34 09:48:00 16° 91° (E) 09:50:36 437.432
YUBILEINY 05 Sep 10:04:35 10:12:49 44° 271° (W) 10:20:51 435.215
PCSat 05 Sep 10:05:19 10:09:30 23° 49° (NE) 10:13:48 145.827
DOVE 4 05 Sep 10:10:42 10:16:03 87° 286° (WNW) 10:21:15 437.250
UNISAT 6 05 Sep 10:12:20 10:14:29 13° 65° (ENE) 10:16:52 437.425
CUSAT 1 05 Sep 10:12:43 10:19:01 25° 66° (ENE) 10:25:36 437.405
BRITE-PL 05 Sep 10:18:12 10:23:07 31° 290° (WNW) 10:27:59 437.365/2234.400
CINEMA 3 05 Sep 10:20:04 10:24:53 50° 98° (E) 10:29:31 145.822/145.860
Cosmos 2504 05 Sep 10:20:38 10:28:08 36° 71° (ENE) 10:35:19 435.465 / 435.565
GOMX 1 05 Sep 10:21:35 10:26:47 44° 288° (WNW) 10:31:55 467.674
ISS 05 Sep 10:22:24 10:23:29 11° 345° (NNW) 10:24:31 145.825
HO-68 05 Sep 10:32:51 10:40:06 89° 99° (E) 10:47:19 435.675
CUTE 1.7 + AOD 2 05 Sep 10:33:20 10:37:32 68° 285° (WNW) 10:41:43 437.475
TIGRISAT 05 Sep 10:37:08 10:40:46 23° 69° (ENE) 10:44:32 435.000
PHONESAT 2.4 05 Sep 10:40:55 10:43:18 18° 213° (SSW) 10:45:37 2401.200-2431.200
CANX-2 05 Sep 10:48:22 10:52:20 39° 287° (WNW) 10:56:14 2200.000
SO-50 05 Sep 10:50:27 10:54:54 34° 246° (WSW) 10:59:11 436.795
Cosmos 2491 05 Sep 10:52:08 11:00:16 41° 287° (WNW) 11:08:20 435.465 / 435.565
ZACube-1 05 Sep 10:52:16 10:55:59 26° 94° (E) 10:59:39 437.345
FUNcube-1 05 Sep 10:55:16 10:59:00 27° 94° (E) 11:02:44 145.935
QB50P1 05 Sep 10:55:28 10:56:57 12° 65° (ENE) 10:58:40 145.935-145.965
ANTELSAT 05 Sep 10:55:39 10:59:56 37° 72° (ENE) 11:04:18 437.575/2403.000
SEEDS 05 Sep 11:00:45 11:04:41 40° 287° (WNW) 11:08:35 437.485
AUBIESAT-1 05 Sep 11:04:39 11:09:04 41° 68° (ENE) 11:13:24 437.475
DELFI C3 05 Sep 11:08:05 11:11:47 38° 98° (E) 11:15:31 145.870
UWE-3 05 Sep 11:10:03 11:14:32 57° 100° (E) 11:18:50 435.000/436.395/437.385
CUBEBUG 2 05 Sep 11:13:39 11:18:19 84° 101° (E) 11:22:47 437.445
COMPASS 1 05 Sep 11:14:16 11:18:06 36° 287° (WNW) 11:21:52 437.405
M-CUBED/EXP-1 PRIME 05 Sep 11:14:39 11:19:23 63° 70° (ENE) 11:24:00 437.505
DANDE 05 Sep 11:16:12 11:23:56 49° 75° (ENE) 11:32:09 436.750
AAUSAT CUBESAT 2 05 Sep 11:19:57 11:23:46 37° 287° (WNW) 11:27:33 437.432
Oscar 11 05 Sep 11:33:36 11:37:53 65° 285° (WNW) 11:42:08 145.826/435.025
DX 1 05 Sep 11:35:28 11:38:03 16° 92° (E) 11:40:48 434.975-435.025
BUGSAT 1 05 Sep 11:39:14 11:42:15 21° 69° (ENE) 11:45:25 437.445
UKube-1 05 Sep 11:40:01 11:42:33 16° 92° (E) 11:45:16 .
UNISAT 6 05 Sep 11:46:07 11:50:47 63° 260° (W) 11:55:28 437.425
PCSat 05 Sep 11:48:00 11:53:16 52° 247° (WSW) 11:58:30 145.827
DOVE 4 05 Sep 11:51:29 11:53:02 11° 298° (WNW) 11:54:15 437.250
DUCHIFAT 1 05 Sep 11:52:55 11:57:00 50° 74° (ENE) 12:01:10 145.980
CUSAT 1 05 Sep 11:54:10 12:02:18 73° 264° (W) 12:10:16 437.405
POLYITAN 1 05 Sep 11:56:30 12:00:42 60° 75° (ENE) 12:04:57 437.675
POPSAT HIP 1 05 Sep 11:57:03 12:01:13 59° 75° (ENE) 12:05:28 437.405
CINEMA 3 05 Sep 11:58:22 12:01:38 17° 294° (WNW) 12:04:41 145.822/145.860
CUBEBUG 1 05 Sep 12:03:29 12:05:16 12° 90° (E) 12:07:18 437.445
NANOSAT C BR1 05 Sep 12:12:11 12:16:26 88° 77° (ENE) 12:20:44 145.865
Cosmos 2504 05 Sep 12:12:41 12:20:31 44° 272° (W) 12:27:44 435.465 / 435.565
TIGRISAT 05 Sep 12:13:04 12:17:21 34° 264° (W) 12:21:36 435.000
QB50P2 05 Sep 12:15:18 12:19:33 81° 258° (WSW) 12:23:52 145.880/145.840
AISAT 05 Sep 12:17:05 12:21:04 31° 96° (E) 12:25:03 437.250
JUGNU 05 Sep 12:20:37 12:21:53 11° 173° (S) 12:23:12 437.505
HO-68 05 Sep 12:22:29 12:27:01 17° 302° (WNW) 12:31:12 435.675
ESTCUBE 1 05 Sep 12:22:50 12:26:35 26° 95° (E) 12:30:24 437.505/2401.250
QB50P1 05 Sep 12:28:09 12:32:21 58° 259° (W) 12:36:36 145.935-145.965
ZACube-1 05 Sep 12:28:34 12:32:16 25° 290° (WNW) 12:35:48 437.345
HUMSAT D 05 Sep 12:30:43 12:34:52 59° 285° (WNW) 12:38:56 437.325/437.525
FUNcube-1 05 Sep 12:31:37 12:35:14 24° 291° (WNW) 12:38:42 145.935
ANTELSAT 05 Sep 12:33:16 12:36:50 21° 267° (W) 12:40:19 437.575/2403.000
AUBIESAT-1 05 Sep 12:40:21 12:43:53 20° 262° (W) 12:47:12 437.475
VELOX 1 05 Sep 12:43:26 12:47:52 59° 101° (E) 12:52:17 145.980
DELFI C3 05 Sep 12:44:12 12:46:34 15° 292° (WNW) 12:48:46 145.870
50 SAT 05 Sep 12:45:02 12:48:54 82° 103° (ESE) 12:52:42 437.505
UWE-3 05 Sep 12:48:21 12:50:33 13° 295° (WNW) 12:52:32 435.000/436.395/437.385
M-CUBED/EXP-1 PRIME 05 Sep 12:52:02 12:54:30 13° 265° (W) 12:56:41 437.505
GONETS M04 05 Sep 12:57:20 13:02:43 18° 62° (ENE) 13:08:35
DANDE 05 Sep 12:59:35 13:06:58 38° 270° (W) 13:14:29 436.750
DX 1 05 Sep 13:10:21 13:14:32 42° 288° (WNW) 13:18:39 434.975-435.025
SPROUT 05 Sep 13:13:32 13:16:58 23° 94° (E) 13:20:28 437.525
BUGSAT 1 05 Sep 13:13:59 13:17:33 28° 264° (W) 13:21:09 437.445
UKube-1 05 Sep 13:14:48 13:18:54 42° 288° (WNW) 13:22:59 .
Oscar 19 05 Sep 13:30:34 13:34:48 27° 68° (ENE) 13:39:10 437.125/150
DUCHIFAT 1 05 Sep 13:31:14 13:33:10 12° 270° (W) 13:34:52 145.980
POLYITAN 1 05 Sep 13:36:02 13:37:04 11° 272° (W) 13:37:48 437.675
ISS 05 Sep 13:36:07 13:38:34 19° 25° (NNE) 13:41:02 145.825
POPSAT HIP 1 05 Sep 13:36:28 13:37:33 11° 271° (W) 13:38:20 437.405
CUBEBUG 1 05 Sep 13:37:41 13:42:01 54° 286° (WNW) 13:46:20 437.445
CUSAT 1 05 Sep 13:39:55 13:43:48 14° 279° (W) 13:47:04 437.405
AISAT 05 Sep 13:53:54 13:57:28 23° 291° (WNW) 14:00:57 437.250
TISAT 1 05 Sep 13:56:34 14:00:34 38° 98° (E) 14:04:34 437.305
JAS-2 05 Sep 13:57:03 14:00:24 14° 57° (ENE) 14:04:11 435.910
BEESAT 3 05 Sep 13:58:45 14:02:05 25° 113° (ESE) 14:05:30 437.485
ESTCUBE 1 05 Sep 13:59:36 14:03:24 27° 290° (WNW) 14:07:09 437.505/2401.250
JUGNU 05 Sep 14:07:51 14:10:02 12° 183° (S) 14:12:11 437.505
Cosmos 2499 05 Sep 14:09:39 14:12:21 12° 56° (NE) 14:15:37 435.465 / 435.565
BEESAT 2 05 Sep 14:18:21 14:21:57 31° 114° (ESE) 14:25:37 435.950
VELOX 1 05 Sep 14:21:50 14:23:58 13° 295° (WNW) 14:25:53 145.980
SWISSCUBE 05 Sep 14:25:06 14:27:32 14° 90° (E) 14:30:12 437.505
ITAMSAT 1 05 Sep 14:40:35 14:45:03 31° 69° (ENE) 14:49:36 435.822/435.867
SPROUT 05 Sep 14:49:18 14:53:03 28° 289° (WNW) 14:56:42 437.525
GONETS M04 05 Sep 14:52:07 15:01:00 89° 263° (W) 15:09:52
Gurwin Techsat 1B 05 Sep 14:52:14 14:57:18 50° 72° (ENE) 15:02:27 435.225
ITUPSAT 1 05 Sep 15:04:47 15:09:06 34° 97° (E) 15:13:26 437.325
Oscar 19 05 Sep 15:09:20 15:14:02 34° 264° (W) 15:18:44 437.125/150
ISS 05 Sep 15:12:01 15:15:12 56° 223° (SW) 15:18:23 145.825
RS-15 05 Sep 15:22:46 15:32:14 38° 108° (ESE) 15:42:15 29.354- 29.394
SRMSAT 05 Sep 15:27:36 15:29:48 12° 180° (S) 15:32:00 437.500
AIST 2 05 Sep 15:30:10 15:34:02 36° 115° (ESE) 15:37:57 435.215
TISAT 1 05 Sep 15:33:11 15:36:04 17° 292° (WNW) 15:38:46 437.305
HORYU 2 05 Sep 15:33:28 15:34:23 11° 64° (ENE) 15:35:34 437.375
BEESAT 05 Sep 15:34:15 15:39:01 73° 101° (ESE) 15:43:46 436.000
BEESAT 3 05 Sep 15:36:25 15:39:56 27° 309° (NW) 15:43:26 437.485
JAS-2 05 Sep 15:36:34 15:44:14 68° 73° (ENE) 15:52:00 435.910
BEESAT 2 05 Sep 15:56:40 16:00:01 23° 311° (NW) 16:03:20 435.950
AO-7 05 Sep 15:57:23 16:05:08 46° 65° (ENE) 16:12:58 29.400- 29.500
Cosmos 2499 05 Sep 15:59:08 16:07:39 69° 80° (E) 16:15:30 435.465 / 435.565
SWISSCUBE 05 Sep 16:01:08 16:05:47 54° 286° (WNW) 16:10:24 437.505
ITAMSAT 1 05 Sep 16:20:02 16:24:33 29° 265° (W) 16:29:00 435.822/435.867
STARS 05 Sep 16:25:59 16:29:29 23° 94° (E) 16:33:02 437.465
Gurwin Techsat 1B 05 Sep 16:33:51 16:37:38 19° 269° (W) 16:41:13 435.225
ITUPSAT 1 05 Sep 16:43:01 16:46:49 24° 292° (WNW) 16:50:32 437.325
GONETS M04 05 Sep 16:51:38 16:56:47 16° 280° (W) 17:01:21
KKS-1 05 Sep 16:57:18 17:01:49 90° 284° (WNW) 17:06:17 437.445
HORYU 2 05 Sep 17:05:59 17:10:29 73° 258° (WSW) 17:14:59 437.375
AIST 2 05 Sep 17:09:19 17:12:43 22° 312° (NW) 17:16:01 435.215
BEESAT 05 Sep 17:14:27 17:16:20 12° 297° (WNW) 17:17:56 436.000
JAS-2 05 Sep 17:23:37 17:29:49 25° 271° (W) 17:35:49 435.910
RS-15 05 Sep 17:33:24 17:44:12 59° 309° (NW) 17:55:24 29.354- 29.394
CUTE-I 05 Sep 17:45:48 17:47:53 13° 62° (ENE) 17:50:15 437.470
MOZHAYETS 4 05 Sep 17:47:59 17:52:21 45° 98° (E) 17:56:44
AO-7 05 Sep 17:50:22 17:58:03 39° 262° (W) 18:05:38 29.400- 29.500
Cosmos 2499 05 Sep 17:53:47 18:00:00 22° 278° (W) 18:05:34 435.465 / 435.565
STARS 05 Sep 18:02:02 18:05:56 30° 290° (WNW) 18:09:45 437.465
O/OREOS (USA 219) 05 Sep 18:02:33 18:05:30 18° 101° (ESE) 18:08:38 437.305
Cubesat XI-IV 05 Sep 18:39:13 18:44:07 40° 70° (ENE) 18:49:05 437.490
AIST 1 05 Sep 18:46:11 18:48:56 17° 71° (ENE) 18:51:50
Cosmos 2491 05 Sep 19:08:31 19:13:50 18° 62° (ENE) 19:19:41 435.465 / 435.565
HO-68 05 Sep 19:19:33 19:19:54 10° 52° (NE) 19:20:43 435.675
CUTE-I 05 Sep 19:22:02 19:27:20 81° 255° (WSW) 19:32:42 437.470
MOZHAYETS 4 05 Sep 19:26:19 19:29:15 17° 293° (WNW) 19:32:00
O/OREOS (USA 219) 05 Sep 19:40:21 19:44:39 40° 297° (WNW) 19:48:58 437.305
BRITE-PL 05 Sep 19:49:37 19:53:29 29° 69° (ENE) 19:57:41 437.365/2234.400
GOMX 1 05 Sep 19:51:37 19:54:48 19° 66° (ENE) 19:58:17 467.674
RS-15 05 Sep 19:51:41 19:59:53 22° 339° (NNW) 20:08:06 29.354- 29.394
CUBESAT XI-V 05 Sep 19:56:31 20:01:12 87° 281° (W) 20:05:53 437.345
STRAND 1 05 Sep 20:19:20 20:24:04 38° 97° (E) 20:28:50 437.568
Cubesat XI-IV 05 Sep 20:20:07 20:24:24 23° 267° (W) 20:28:32 437.490
AIST 1 05 Sep 20:22:45 20:26:47 37° 268° (W) 20:30:47
HO-68 05 Sep 20:59:21 21:06:19 58° 70° (ENE) 21:13:21 435.675
Cosmos 2491 05 Sep 21:03:19 21:12:08 89° 260° (W) 21:20:57 435.465 / 435.565
YUBILEINY 05 Sep 21:06:35 21:14:45 47° 89° (E) 21:23:05 435.215
PRISM 05 Sep 21:13:18 21:17:26 78° 285° (WNW) 21:21:33 437.425
DOVE 4 05 Sep 21:14:19 21:19:02 79° 76° (ENE) 21:24:05 437.250
CINEMA 3 05 Sep 21:19:52 21:24:17 39° 72° (ENE) 21:28:54 145.822/145.860
CUTE 1.7 + AOD 2 05 Sep 21:24:14 21:28:29 69° 76° (ENE) 21:32:45 437.475
GOMX 1 05 Sep 21:28:08 21:32:33 44° 263° (W) 21:37:18 467.674
BRITE-PL 05 Sep 21:28:17 21:32:02 25° 268° (W) 21:35:56 437.365/2234.400
CANX-2 05 Sep 21:39:08 21:43:24 70° 259° (WSW) 21:47:41 2200.000
ZACube-1 05 Sep 21:47:03 21:50:14 20° 68° (ENE) 21:53:35 437.345
FUNcube-1 05 Sep 21:49:45 21:53:01 20° 68° (ENE) 21:56:25 145.935
SEEDS 05 Sep 21:50:36 21:54:50 74° 259° (WSW) 21:59:05 437.485
DELFI C3 05 Sep 21:54:14 21:57:08 20° 70° (ENE) 22:00:09 145.870
STRAND 1 05 Sep 21:58:59 22:03:06 24° 293° (WNW) 22:07:04 437.568
COMPASS 1 05 Sep 22:03:13 22:07:24 67° 259° (WSW) 22:11:36 437.405
UWE-3 05 Sep 22:05:14 22:09:33 40° 72° (ENE) 22:13:57 435.000/436.395/437.385
AAUSAT CUBESAT 2 05 Sep 22:08:26 22:12:37 70° 260° (W) 22:16:47 437.432
CUBEBUG 2 05 Sep 22:09:42 22:14:17 58° 75° (ENE) 22:19:00 437.445
RS-15 05 Sep 22:10:48 22:18:19 19° 14° (NNE) 22:26:17 29.354- 29.394
BEESAT 3 05 Sep 22:19:21 22:20:59 12° 42° (NE) 22:22:46 437.485
Oscar 11 05 Sep 22:26:27 22:30:48 79° 77° (ENE) 22:35:09 145.826/435.025
DX 1 05 Sep 22:30:57 22:32:33 12° 65° (ENE) 22:34:23 434.975-435.025
UKube-1 05 Sep 22:34:45 22:36:14 12° 65° (ENE) 22:37:58 .
BEESAT 2 05 Sep 22:39:21 22:41:36 15° 44° (NE) 22:43:58 435.950
HO-68 05 Sep 22:48:43 22:54:30 25° 267° (W) 23:00:06 435.675
Cosmos 2504 05 Sep 22:48:59 22:55:33 28° 84° (E) 23:02:37 435.465 / 435.565
CINEMA 3 05 Sep 22:57:58 23:01:38 21° 269° (W) 23:05:17 145.822/145.860
Cosmos 2491 05 Sep 23:02:54 23:07:56 16° 280° (W) 23:12:22 435.465 / 435.565
YUBILEINY 05 Sep 23:03:47 23:11:48 37° 289° (WNW) 23:19:42 435.215
AISAT 05 Sep 23:13:43 23:17:11 24° 69° (ENE) 23:20:46 437.250
CUSAT 1 05 Sep 23:19:43 23:22:00 14° 81° (E) 23:24:51 437.405
HUMSAT D 05 Sep 23:20:14 23:24:32 77° 77° (ENE) 23:28:53 437.325/437.525
ESTCUBE 1 05 Sep 23:21:32 23:24:49 21° 68° (ENE) 23:28:14 437.505/2401.250
ZACube-1 05 Sep 23:22:01 23:26:19 39° 263° (W) 23:30:38 437.345
FUNcube-1 05 Sep 23:24:49 23:29:04 38° 263° (W) 23:33:21 145.935
SO-50 05 Sep 23:25:38 23:27:14 12° 108° (ESE) 23:29:09 436.795
50 SAT 05 Sep 23:26:47 23:30:22 34° 73° (ENE) 23:33:59 437.505
DELFI C3 05 Sep 23:28:29 23:32:02 28° 264° (W) 23:35:33 145.870
VELOX 1 05 Sep 23:39:29 23:43:37 43° 73° (ENE) 23:47:50 145.980
UNISAT 6 05 Sep 23:40:09 23:44:05 30° 95° (E) 23:47:58 437.425
UWE-3 05 Sep 23:42:53 23:46:14 19° 268° (W) 23:49:30 435.000/436.395/437.385
POLYITAN 1 05 Sep 23:45:53 23:46:56 11° 89° (E) 23:48:15 437.675
POPSAT HIP 1 05 Sep 23:46:19 23:47:13 11° 89° (E) 23:48:23 437.405
CUBEBUG 2 05 Sep 23:49:02 23:51:25 13° 272° (W) 23:53:34 437.445
AIST 2 05 Sep 23:53:43 23:56:31 17° 46° (NE) 23:59:23 435.215
BEESAT 3 05 Sep 23:55:24 23:59:25 71° 241° (WSW) 00:03:21 437.485
NANOSAT C BR1 05 Sep 23:59:46 00:02:20 16° 91° (E) 00:05:04 145.865
QB50P2 06 Sep 00:03:01 00:05:59 18° 93° (E) 00:09:02 145.880/145.840
DX 1 06 Sep 00:04:04 00:08:20 59° 259° (W) 00:12:39 434.975-435.025
TIGRISAT 06 Sep 00:06:01 00:10:27 56° 100° (E) 00:14:45 435.000
SPROUT 06 Sep 00:07:08 00:09:38 16° 67° (ENE) 00:12:20 437.525
UKube-1 06 Sep 00:07:39 00:11:54 60° 259° (W) 00:16:12 .
QB50P1 06 Sep 00:15:09 00:18:39 24° 94° (E) 00:22:12 145.935-145.965
BEESAT 2 06 Sep 00:16:03 00:20:02 56° 243° (WSW) 00:23:55 435.950
AUBIESAT-1 06 Sep 00:21:48 00:25:07 31° 101° (E) 00:28:15 437.475
RS-15 06 Sep 00:23:52 00:35:00 46° 45° (NE) 00:46:38 29.354- 29.394
ANTELSAT 06 Sep 00:25:30 00:30:02 83° 284° (WNW) 00:34:25 437.575/2403.000
DANDE 06 Sep 00:27:09 00:30:44 40° 90° (E) 00:35:29 436.750
CUBEBUG 1 06 Sep 00:31:57 00:36:16 80° 258° (WSW) 00:40:38 437.445
M-CUBED/EXP-1 PRIME 06 Sep 00:32:32 00:36:15 56° 104° (ESE) 00:39:40 437.505
Cosmos 2504 06 Sep 00:39:08 00:47:16 59° 282° (WNW) 00:55:44 435.465 / 435.565
PCSat 06 Sep 00:45:50 00:50:05 25° 108° (ESE) 00:54:29 145.827
TISAT 1 06 Sep 00:47:32 00:50:54 24° 70° (ENE) 00:54:23 437.305
AISAT 06 Sep 00:49:47 00:53:39 29° 264° (W) 00:57:30 437.250
VERMONT LUNAR 06 Sep 00:52:13 00:53:17 12° 146° (SSE) 00:54:27 437.305
BUGSAT 1 06 Sep 00:56:55 01:01:00 43° 99° (E) 01:05:04 437.445
ESTCUBE 1 06 Sep 00:57:25 01:01:30 34° 263° (W) 01:05:33 437.505/2401.250
CUSAT 1 06 Sep 00:59:22 01:03:35 51° 285° (WNW) 01:09:15 437.405
SO-50 06 Sep 01:02:25 01:07:12 74° 302° (WNW) 01:12:08 436.795
50 SAT 06 Sep 01:02:33 01:05:01 15° 268° (W) 01:07:20 437.505
DUCHIFAT 1 06 Sep 01:14:27 01:18:43 70° 285° (WNW) 01:22:57 145.980
UNISAT 6 06 Sep 01:17:07 01:20:44 23° 291° (WNW) 01:24:10 437.425
VELOX 1 06 Sep 01:17:41 01:20:26 16° 269° (W) 01:23:01 145.980
POLYITAN 1 06 Sep 01:19:02 01:23:16 57° 286° (WNW) 01:27:27 437.675
POPSAT HIP 1 06 Sep 01:19:17 01:23:32 58° 286° (WNW) 01:27:43 437.405
SWISSCUBE 06 Sep 01:30:41 01:33:16 15° 65° (ENE) 01:36:03 437.505
AIST 2 06 Sep 01:31:21 01:35:21 46° 244° (WSW) 01:39:17 435.215
NANOSAT C BR1 06 Sep 01:34:21 01:38:22 39° 288° (WNW) 01:42:20 145.865
QB50P2 06 Sep 01:38:04 01:41:59 34° 288° (WNW) 01:45:50 145.880/145.840
SPROUT 06 Sep 01:41:17 01:45:23 43° 262° (W) 01:49:31 437.525
TIGRISAT 06 Sep 01:44:30 01:46:44 13° 295° (WNW) 01:48:43 435.000
QB50P1 06 Sep 01:50:52 01:54:28 26° 290° (WNW) 01:57:59 145.935-145.965
AUBIESAT-1 06 Sep 01:57:20 01:59:35 15° 298° (WNW) 02:01:37 437.475
GONETS M04 06 Sep 01:57:47 02:03:31 21° 82° (E) 02:09:42
ITUPSAT 1 06 Sep 02:10:12 02:14:28 34° 70° (ENE) 02:18:46 437.325
DANDE 06 Sep 02:11:49 02:14:30 15° 300° (WNW) 02:17:24 436.750
TISAT 1 06 Sep 02:23:01 02:26:35 26° 265° (W) 02:30:06 437.305
VERMONT LUNAR 06 Sep 02:26:20 02:29:18 58° 160° (SSE) 02:32:15 437.305
PCSat 06 Sep 02:28:09 02:33:17 42° 304° (NW) 02:38:26 145.827
BUGSAT 1 06 Sep 02:33:30 02:36:08 16° 293° (WNW) 02:38:35 437.445
RS-15 06 Sep 02:36:23 02:47:58 58° 247° (WSW) 02:59:44 29.354- 29.394
BEESAT 06 Sep 02:39:05 02:43:49 70° 75° (ENE) 02:48:35 436.000
SO-50 06 Sep 02:46:41 02:48:42 12° 323° (NW) 02:50:32 436.795
ITAMSAT 1 06 Sep 02:56:50 02:58:29 12° 88° (E) 03:00:28 435.822/435.867
SWISSCUBE 06 Sep 03:06:02 03:10:42 56° 260° (W) 03:15:23 437.505
